Regional Weather Roundup
Issued by NWS

Home | Current Version | Previous Version | Text Only | Print | Product List | Glossary On
Versions: 1 2 3 4 5 6 7 8 9 10 11 12 13 14 15 16 17 18 19 20 21 22 23 24 25 26 27 28 29 30 31 32 33 34 35 36 37 38 39 40 41 42 43 44 45 46 47 48 49 50
000
ASUS43 KLMK 310410
RWRKY
KENTUCKY REGIONAL WEATHER ROUNDUP
NATIONAL WEATHER SERVICE LOUISVILLE KY
1200 AM EDT MON AUG 31 2015

NOTE "FAIR" INDICATES FEW OR NO CLOUDS BELOW 12,000 FEET
WITH NO SIGNIFICANT WEATHER AND/OR OBSTRUCTIONS TO VISIBILITY.

KYZ001>023-026-027-061>063-070>075-310500-
WESTERN AND SOUTH CENTRAL KENTUCKY

CITY           SKY/WX    TMP DP  RH WIND       PRES   REMARKS
PADUCAH        CLOUDY    71  67  87 CALM      30.05R
HENDERSON      MOCLDY    70  64  83 S6        30.05S
OWENSBORO      PTCLDY    71  70  97 S6        30.07S
HOPKINSVILLE   MOCLDY    71  70  95 SE3       30.07F
BOWLING GREEN  PTCLDY    69  63  81 CALM      30.10R
GLASGOW        CLEAR     66  61  85 CALM      30.11S
$$

KYZ024-025-028>034-038-045-046-053-310500-
NORTH CENTRAL KENTUCKY

CITY           SKY/WX    TMP DP  RH WIND       PRES   REMARKS
LOUISVILLE/SDF MOCLDY    74  68  81 S5        30.07F
LOUISVILLE/LOU MOCLDY    74  69  85 CALM      30.09S
FORT KNOX      MOCLDY    68  66  94 CALM      30.07F
$$

KYZ035>037-039>044-047>052-055>060-089>105-310500-
NORTHEAST KENTUCKY

CITY           SKY/WX    TMP DP  RH WIND       PRES   REMARKS
LEXINGTON      LGT RAIN  73  68  84 S3        30.11S
COVINGTON      MOCLDY    72  67  84 S6        30.09S
FRANKFORT      MOCLDY    72  67  84 S5        30.09F
$$

KYZ054-064>069-076>088-106>120-310500-
SOUTHEAST KENTUCKY

CITY           SKY/WX    TMP DP  RH WIND       PRES   REMARKS
JACKSON        CLOUDY    73  66  78 CALM      30.13F
LONDON         CLOUDY    71  65  81 CALM      30.13S
SOMERSET       CLOUDY    68  68 100 CALM      30.12F FOG
MIDDLESBORO    CLOUDY    68  68  99 CALM      30.14S
MONTICELLO     PTCLDY    66  66 100 CALM      30.14F FOG
$$




USA.gov is the U.S. government's official web portal to all federal, state and local government web resources and services.